This is the latest recevied weather packets stored in our database for station/object LZ1NAG-10. If no packets are shown the sender has not sent any weather packets the latest 1 day(s).
| Time | Temp. | Humidity | Pressure | Rain* | Wind** | Luminosity | Snow |
|---|---|---|---|---|---|---|---|
| 1778052811 | 28.89° C | 43% | 1020.5 hPa | - | - | - | - |
| 1778051911 | 28.89° C | 42% | 1020.5 hPa | - | - | - | - |
| 1778051011 | 28.33° C | 42% | 1020.9 hPa | - | - | - | - |
| 1778050111 | 27.78° C | 42% | 1020.9 hPa | - | - | - | - |
| 1778046509 | 26.11° C | 41% | 1020.9 hPa | - | - | - | - |
| 1778043808 | 12.22° C | 52% | 1021 hPa | - | - | - | - |
| 1778042908 | 10.56° C | 52% | 1020.9 hPa | - | - | - | - |
| 1778042008 | 9.44° C | 52% | 1021 hPa | - | - | - | - |
| 1778041108 | 8.33° C | 52% | 1020.8 hPa | - | - | - | - |
| 1778040205 | 7.22° C | 53% | 1020.5 hPa | - | - | - | - |
| 1778039305 | 6.67° C | 53% | 1020.4 hPa | - | - | - | - |
| 1778037504 | 7.22° C | 54% | 1020.1 hPa | - | - | - | - |
| 1778036604 | 7.22° C | 54% | 1020.2 hPa | - | - | - | - |
| 1778035707 | 6.11° C | 54% | 1020.2 hPa | - | - | - | - |
| 1778034804 | 6.67° C | 54% | 1020.2 hPa | - | - | - | - |
| 1778033904 | 6.67° C | 54% | 1020.1 hPa | - | - | - | - |
| 1778031202 | 7.22° C | 54% | 1020 hPa | - | - | - | - |
| 1778028501 | 7.78° C | 54% | 1020 hPa | - | - | - | - |
| 1778027601 | 8.33° C | 54% | 1019.7 hPa | - | - | - | - |
| 1778026701 | 10° C | 53% | 1019.7 hPa | - | - | - | - |
| 1778025801 | 9.44° C | 54% | 1019.9 hPa | - | - | - | - |
| 1778021300 | 8.89° C | 54% | 1019.7 hPa | - | - | - | - |
| 1778020400 | 9.44° C | 54% | 1019.7 hPa | - | - | - | - |
| 1778014999 | 12.22° C | 53% | 1019.6 hPa | - | - | - | - |
| 1778014099 | 11.67° C | 54% | 1019.7 hPa | - | - | - | - |
* Rain since midnight (hover to see other rain measurements)
** Current wind speed in m/s (hover to see current wind gust speed)